DELTA 1 DEB

Satellite information

Favourite Embed

Satellite Type and Status

DEBRISIN ORBIT

Key statistics

Satellite DELTA 1 DEB at a glance.

Uptime

17451

Days in orbit

Revolutions

≈ 14.5

Per day

Orbit

SSO

Sun Synchronous Orbit

Inclination

99.1

Latest

Satellite identification and parameters

Extended collection of information and parameters for DELTA 1 DEB.

Object identification

Identified? True

Debris? True

Object name: DELTA 1 DEB

International designator: 1978-026FK

Object number (NORAD): 13572

Object ID (CCSDS): 13572

Country: UNITED STATES OF AMERICA (US)

Current information (Y/N): Y

RCS size: SMALL

Orbital parameters

Period: 99.101 minutes

Inclination: 99.0612 deg

SMA: 7093.811 km

Apoapsis: 781.128 km

Periapsis: 650.223 km

RAAN: 130.3126 deg

Eccentricy: 0.00922669

Argument of periapsis: 351.6507 deg

Mean anomaly: 61.5783 deg

Mean motion: 14.53059419 rev/day

Mean motion (dot): 0.00013159 rev/day2

B* drag term: 0.0030188602 1/REarth

Two-line elements (TLE)

Creation date: Dec. 14, 2025, 3:07 a.m.

Reference frame: TEME

Reference center: EARTH

Epoch: Dec. 13, 2025, 8:52 a.m. UTC

TLE line 0: 0 DELTA 1 DEB

TLE line 1: 1 13572U 78026FK 25347.36980067 .00013159 00000-0 30189-2 0 9993

TLE line 2: 2 13572 99.0612 130.3126 0092267 351.6507 61.5783 14.53059419286979

Live tracking on map

Real-time ground track for satellite DELTA 1 DEB.

In-orbit conjunctions

A list of the most updated potential collisions computed for object DELTA 1 DEB.

Target Orbit TCA Probability of collision Miss distance Type
SL-8 R/B LEO 2025-11-15 07:32:37 0.0001324406 341.0 (m) ROCKET BODY
CZ-6A DEB LEO 2025-01-18 20:28:43 0.0002204683 215.0 (m) DEBRIS
FENGYUN 1C DEB SSO 2024-11-15 13:59:06 0.0002208573 911.0 (m) DEBRIS

Associated space launch

Earth observation satellite

DELTA 1 DEB was lifted into orbit during the mission ‘Delta 2910 | Landsat 3’, on board a Delta 2910 space rocket.

The launch took place on March 5, 1978, 5:54 p.m. from Space Launch Complex 2W.

For more information about the launch, click the button.

Launch to space Delta 2910 | Landsat 3
Delta 2910 | Landsat 3

Agency: N/A

Status: Launch Successful

Launch date: March 5, 1978, 5:54 p.m. UTC

Rocket: Delta 2910

Launch pad: Space Launch Complex 2W

Location: Vandenberg SFB, CA, USA

...

Latest news about this satellite

There are no fresh news available about this satellite. Check back as we update our databases every day.


Newsletter sign-up

Weekly statistics, charts and insights to help you stay on top of the space industry.